This demonstration page uses our WeatherBlox Daily Observations layout. Learn more.

Left ArrowRight Arrow

44.89941, -97.11507

Hourly Observations for August 28, 2016

Temp ( °F °C ) Dew Point ( °F °C ) Humidity (%) Winds ( mph kmh ) Pressure ( in mb ) Visibility ( mi km ) Precip ( " mm )
12:53 am 00:53 Mostly Cloudy 66 18.9 62 16.7 87 87 SE 10 17 29.99 1016 10 16 0.00 0.00
1:25 am 01:25 Mostly Cloudy with Nearby Thunderstorms 67 19.4 62 16.7 84 84 SSE 12 19 29.94 1014 10 16 0.00 0.00
1:53 am 01:53 Partly Cloudy with Thunderstorms 67 19.4 63 17.2 87 87 SSE 15 24 29.97 1015 10 16 0.00 0.00
2:53 am 02:53 Cloudy 67 19.4 63 17.2 87 87 SE 5 7 29.98 1015 10 16 0.00 0.00
3:34 am 03:34 Cloudy with Nearby Thunderstorms 67 19.4 63 17.2 87 87 E 10 17 29.97 1015 10 16 0.00 0.00
3:44 am 03:44 Mostly Cloudy 68 20 63 17.2 84 84 E 10 17 29.97 1015 10 16 0.00 0.00
3:53 am 03:53 Partly Cloudy 68 20 63 17.2 84 84 SE 9 15 29.99 1016 10 16 0.00 0.00
4:53 am 04:53 Mostly Cloudy 68 20 64 17.8 87 87 ENE 10 17 30.02 1017 10 16 0.00 0.00
5:11 am 05:11 Cloudy 67 19.4 59 15 76 76 ESE 8 13 29.97 1015 10 16 0.00 0.00
5:24 am 05:24 Cloudy 69 20.6 61 16.1 76 76 SE 12 19 29.97 1015 10 16 0.00 0.00
5:53 am 05:53 Cloudy 69 20.6 61 16.1 76 76 ESE 12 19 30.02 1017 10 16 0.00 0.00
6:53 am 06:53 Mostly Sunny 66 18.9 59 15 78 78 SE 10 17 30.03 1017 10 16 0.00 0.00
7:53 am 07:53 Sunny 67 19.4 61 16.1 81 81 SE 10 17 30.03 1017 10 16 0.00 0.00
8:53 am 08:53 Sunny 71 21.7 64 17.8 79 79 SE 14 22 30.02 1017 10 16 0.00 0.00
9:53 am 09:53 Sunny 74 23.3 67 19.4 79 79 SSE 12 19 30.01 1016 10 16 0.00 0.00
10:53 am 10:53 Sunny 77 25 68 20 74 74 SSE 18 30 30.01 1016 10 16 0.00 0.00
11:53 am 11:53 Sunny 80 26.7 71 21.7 74 74 SSE 14 22 30.01 1016 10 16 0.00 0.00
12:53 pm 12:53 Sunny 82 27.8 71 21.7 69 69 SSE 20 31 30.00 1016 10 16 0.00 0.00
1:53 pm 13:53 Sunny 85 29.4 72 22.2 65 65 SSE 18 30 29.97 1015 10 16 0.00 0.00
2:53 pm 14:53 Sunny 87 30.6 72 22.2 61 61 S 20 31 29.96 1015 10 16 0.00 0.00
3:53 pm 15:53 Sunny 87 30.6 72 22.2 61 61 SSE 21 33 29.95 1014 10 16 0.00 0.00
4:53 pm 16:53 Sunny 87 30.6 71 21.7 59 59 S 21 33 29.94 1014 10 16 0.00 0.00
5:53 pm 17:53 Sunny 86 30 71 21.7 61 61 S 21 33 29.94 1014 10 16 0.00 0.00
6:53 pm 18:53 Sunny 84 28.9 71 21.7 65 65 S 14 22 29.96 1014 10 16 0.00 0.00
7:53 pm 19:53 Sunny 81 27.2 70 21.1 69 69 SSE 12 19 29.97 1015 10 16 0.00 0.00
8:53 pm 20:53 Clear 78 25.6 70 21.1 76 76 SSE 13 20 30.00 1016 10 16 0.00 0.00
9:53 pm 21:53 Clear 76 24.4 70 21.1 82 82 SSE 13 20 30.01 1016 10 16 0.00 0.00
10:53 pm 22:53 Clear 75 23.9 70 21.1 84 84 S 13 20 30.01 1016 10 16 0.00 0.00
11:53 pm 23:53 Clear 75 23.9 70 21.1 84 84 S 12 19 30.01 1016 10 16 0.00 0.00

Powered by AerisWeather